User: anonymous   Login
Location: Nebula Knoll Observatory
(43.6666°N, 71.0000°W)
Time: 01:08:47
(UTC-05:00)
Language:

SeaSat 1 - Orbit

View from above orbital plane
View from above orbital plane
View from above satellite
View from above satellite

Ground track
Ground track

The orbit data is extracted from the following two-line orbital elements,

1 10967U 78064A   17323.61501057 +.00000000 +00000-0 +40335-4 0  9998
2 10967 108.0112 264.2642 0003034 285.4265 074.6544 14.43678542068802
Epoch (UTC): 19 November 2017 14:45:36
Eccentricity: 0.0003034
inclination: 108.0112°
perigee height: 744 km
apogee height: 748 km
right ascension of ascending node: 264.2642°
argument of perigee: 285.4265°
revolutions per day: 14.43678542
mean anomaly at epoch: 74.6544°
orbit number at epoch: 6880

The dashed part of the orbit path shows where the satellite is in the earth's shadow,  

DLR